Time,TemperatureF,DewpointF,PressureIn,WindDirection,WindDirectionDegrees,WindSpeedMPH,WindSpeedGustMPH,Humidity,HourlyPrecipIn,Conditions,Clouds,dailyrainin,SolarRadiationWatts/m^2,SoftwareType,DateUTC
2013-09-24 00:03:00,49.0,47.0,-100.00,ESE,115,4.0,8.0,94,0.00,,,0.00,0.000000,,2013-09-24 05:03:00,
2013-09-24 00:43:00,46.0,45.0,-100.00,ESE,117,3.0,7.0,97,0.00,,,0.00,0.000000,,2013-09-24 05:43:00,
2013-09-24 00:53:00,46.0,45.0,-100.00,ESE,117,3.0,7.0,97,0.00,,,0.00,0.000000,,2013-09-24 05:53:00,
2013-09-24 01:02:00,46.0,45.0,-100.00,ESE,117,3.0,7.0,97,0.00,,,0.00,0.000000,,2013-09-24 06:02:00,
2013-09-24 01:42:00,44.0,44.0,-100.00,ESE,119,3.0,4.0,99,0.00,,,0.00,0.000000,,2013-09-24 06:42:00,
2013-09-24 01:52:00,44.0,44.0,-100.00,ESE,119,3.0,4.0,99,0.00,,,0.00,0.000000,,2013-09-24 06:52:00,
2013-09-24 02:03:00,44.0,44.0,-100.00,ESE,119,3.0,4.0,99,0.00,,,0.00,0.000000,,2013-09-24 07:03:00,
2013-09-24 02:43:00,42.0,42.0,-100.00,ESE,120,0.0,4.0,100,0.00,,,0.00,0.000000,,2013-09-24 07:43:00,
2013-09-24 02:52:00,42.0,42.0,-100.00,ESE,120,0.0,4.0,100,0.00,,,0.00,0.000000,,2013-09-24 07:52:00,
2013-09-24 03:02:00,42.0,42.0,-100.00,ESE,120,0.0,4.0,100,0.00,,,0.00,0.000000,,2013-09-24 08:02:00,
2013-09-24 03:42:00,39.0,39.0,-100.00,North,353,1.0,3.0,100,0.00,,,0.00,0.000000,,2013-09-24 08:42:00,
2013-09-24 03:52:00,39.0,39.0,-100.00,North,353,1.0,3.0,100,0.00,,,0.00,0.000000,,2013-09-24 08:52:00,
2013-09-24 04:01:00,39.0,39.0,-100.00,North,353,1.0,3.0,100,0.00,,,0.00,0.000000,,2013-09-24 09:01:00,
2013-09-24 04:43:00,36.0,36.0,-100.00,NE,47,0.0,2.0,100,0.00,,,0.00,0.000000,,2013-09-24 09:43:00,
2013-09-24 04:54:00,36.0,36.0,-100.00,NE,47,0.0,2.0,100,0.00,,,0.00,0.000000,,2013-09-24 09:54:00,
2013-09-24 05:03:00,36.0,36.0,-100.00,NE,47,0.0,2.0,100,0.00,,,0.00,0.000000,,2013-09-24 10:03:00,
2013-09-24 05:42:00,37.0,37.0,-100.00,ENE,75,2.0,3.0,100,0.00,,,0.00,0.000000,,2013-09-24 10:42:00,
2013-09-24 05:53:00,37.0,37.0,-100.00,ENE,75,2.0,3.0,100,0.00,,,0.00,0.000000,,2013-09-24 10:53:00,
2013-09-24 06:03:00,37.0,37.0,-100.00,ENE,75,2.0,3.0,100,0.00,,,0.00,0.000000,,2013-09-24 11:03:00,
2013-09-24 06:42:00,41.0,41.0,-100.00,ENE,78,2.0,4.0,100,0.00,,,0.00,0.000000,,2013-09-24 11:42:00,
2013-09-24 06:52:00,41.0,41.0,-100.00,ENE,78,2.0,4.0,100,0.00,,,0.00,0.000000,,2013-09-24 11:52:00,
2013-09-24 07:01:00,41.0,41.0,-100.00,ENE,78,2.0,4.0,100,0.00,,,0.00,0.000000,,2013-09-24 12:01:00,
2013-09-24 07:42:00,41.0,41.0,-100.00,East,82,2.0,4.0,100,0.00,,,0.00,2.000000,,2013-09-24 12:42:00,
2013-09-24 07:52:00,41.0,41.0,-100.00,East,82,2.0,4.0,100,0.00,,,0.00,2.000000,,2013-09-24 12:52:00,
2013-09-24 08:01:00,41.0,41.0,-100.00,East,82,2.0,4.0,100,0.00,,,0.00,2.000000,,2013-09-24 13:01:00,
2013-09-24 08:42:00,48.0,48.0,-100.00,East,98,3.0,5.0,100,0.00,,,0.00,84.000000,,2013-09-24 13:42:00,
2013-09-24 08:52:00,48.0,48.0,-100.00,East,98,3.0,5.0,100,0.00,,,0.00,84.000000,,2013-09-24 13:52:00,
2013-09-24 09:02:00,48.0,48.0,-100.00,East,98,3.0,5.0,100,0.00,,,0.00,84.000000,,2013-09-24 14:02:00,
2013-09-24 09:42:00,56.0,53.0,-100.00,ESE,113,4.0,8.0,89,0.00,,,0.00,275.000000,,2013-09-24 14:42:00,
2013-09-24 09:52:00,56.0,53.0,-100.00,ESE,113,4.0,8.0,89,0.00,,,0.00,275.000000,,2013-09-24 14:52:00,
2013-09-24 10:01:00,56.0,53.0,-100.00,ESE,113,4.0,8.0,89,0.00,,,0.00,275.000000,,2013-09-24 15:01:00,
2013-09-24 10:43:00,62.0,53.0,-100.00,ESE,113,5.0,10.0,73,0.00,,,0.00,445.000000,,2013-09-24 15:43:00,
2013-09-24 10:54:00,62.0,53.0,-100.00,ESE,113,5.0,10.0,73,0.00,,,0.00,445.000000,,2013-09-24 15:54:00,
2013-09-24 11:03:00,62.0,53.0,-100.00,ESE,113,5.0,10.0,73,0.00,,,0.00,445.000000,,2013-09-24 16:03:00,
2013-09-24 11:43:00,67.0,53.0,-100.00,SSE,161,3.0,7.0,60,0.00,,,0.00,574.000000,,2013-09-24 16:43:00,
2013-09-24 11:53:00,67.0,53.0,-100.00,SSE,161,3.0,7.0,60,0.00,,,0.00,574.000000,,2013-09-24 16:53:00,
2013-09-24 12:02:00,67.0,53.0,-100.00,SSE,161,3.0,7.0,60,0.00,,,0.00,574.000000,,2013-09-24 17:02:00,
2013-09-24 12:43:00,70.0,50.0,-100.00,SSE,159,6.0,12.0,49,0.00,,,0.00,673.000000,,2013-09-24 17:43:00,
2013-09-24 12:54:00,70.0,50.0,-100.00,SSE,159,6.0,12.0,49,0.00,,,0.00,673.000000,,2013-09-24 17:54:00,
2013-09-24 13:03:00,70.0,50.0,-100.00,SSE,159,6.0,12.0,49,0.00,,,0.00,673.000000,,2013-09-24 18:03:00,
2013-09-24 13:42:00,72.0,48.0,-100.00,SE,145,6.0,13.0,43,0.00,,,0.00,705.000000,,2013-09-24 18:42:00,
2013-09-24 13:52:00,72.0,48.0,-100.00,SE,145,6.0,13.0,43,0.00,,,0.00,705.000000,,2013-09-24 18:52:00,
2013-09-24 14:02:00,72.0,48.0,-100.00,SE,145,6.0,13.0,43,0.00,,,0.00,705.000000,,2013-09-24 19:02:00,
2013-09-24 14:42:00,73.0,47.0,-100.00,ESE,118,6.0,13.0,39,0.00,,,0.00,674.000000,,2013-09-24 19:42:00,
2013-09-24 14:52:00,73.0,47.0,-100.00,ESE,118,6.0,13.0,39,0.00,,,0.00,674.000000,,2013-09-24 19:52:00,
2013-09-24 15:02:00,73.0,47.0,-100.00,ESE,118,6.0,13.0,39,0.00,,,0.00,674.000000,,2013-09-24 20:02:00,
2013-09-24 15:42:00,73.0,47.0,-100.00,South,188,6.0,14.0,40,0.00,,,0.00,617.000000,,2013-09-24 20:42:00,
2013-09-24 15:52:00,73.0,47.0,-100.00,South,188,6.0,14.0,40,0.00,,,0.00,617.000000,,2013-09-24 20:52:00,
2013-09-24 16:02:00,73.0,47.0,-100.00,South,188,6.0,14.0,40,0.00,,,0.00,617.000000,,2013-09-24 21:02:00,
2013-09-24 16:44:00,73.0,49.0,-100.00,ESE,122,6.0,13.0,42,0.00,,,0.00,504.000000,,2013-09-24 21:44:00,
2013-09-24 16:54:00,73.0,49.0,-100.00,ESE,122,6.0,13.0,42,0.00,,,0.00,504.000000,,2013-09-24 21:54:00,
2013-09-24 17:04:00,73.0,49.0,-100.00,ESE,122,6.0,13.0,42,0.00,,,0.00,504.000000,,2013-09-24 22:04:00,
2013-09-24 17:43:00,73.0,49.0,-100.00,SE,125,7.0,12.0,43,0.00,,,0.00,346.000000,,2013-09-24 22:43:00,
2013-09-24 17:54:00,73.0,49.0,-100.00,SE,125,7.0,12.0,43,0.00,,,0.00,346.000000,,2013-09-24 22:54:00,
2013-09-24 18:03:00,73.0,49.0,-100.00,SE,125,7.0,12.0,43,0.00,,,0.00,346.000000,,2013-09-24 23:03:00,
2013-09-24 18:43:00,70.0,50.0,-100.00,ESE,113,7.0,10.0,49,0.00,,,0.00,167.000000,,2013-09-24 23:43:00,
2013-09-24 18:53:00,70.0,50.0,-100.00,ESE,113,7.0,10.0,49,0.00,,,0.00,167.000000,,2013-09-24 23:53:00,
2013-09-24 19:02:00,70.0,50.0,-100.00,ESE,113,7.0,10.0,49,0.00,,,0.00,167.000000,,2013-09-25 00:02:00,
2013-09-24 19:42:00,63.0,51.0,-100.00,ESE,104,4.0,11.0,66,0.00,,,0.00,19.000000,,2013-09-25 00:42:00,
2013-09-24 19:52:00,63.0,51.0,-100.00,ESE,104,4.0,11.0,66,0.00,,,0.00,19.000000,,2013-09-25 00:52:00,
2013-09-24 20:02:00,63.0,51.0,-100.00,ESE,104,4.0,11.0,66,0.00,,,0.00,19.000000,,2013-09-25 01:02:00,
2013-09-24 20:42:00,56.0,51.0,-100.00,East,96,1.0,7.0,82,0.00,,,0.00,0.000000,,2013-09-25 01:42:00,
2013-09-24 20:52:00,56.0,51.0,-100.00,East,96,1.0,7.0,82,0.00,,,0.00,0.000000,,2013-09-25 01:52:00,
2013-09-24 21:02:00,56.0,51.0,-100.00,East,96,1.0,7.0,82,0.00,,,0.00,0.000000,,2013-09-25 02:02:00,
2013-09-24 21:42:00,55.0,51.0,-100.00,ESE,119,4.0,6.0,85,0.00,,,0.00,0.000000,,2013-09-25 02:42:00,
2013-09-24 21:52:00,55.0,51.0,-100.00,ESE,119,4.0,6.0,85,0.00,,,0.00,0.000000,,2013-09-25 02:52:00,
2013-09-24 22:02:00,55.0,51.0,-100.00,ESE,119,4.0,6.0,85,0.00,,,0.00,0.000000,,2013-09-25 03:02:00,
2013-09-24 22:45:00,53.0,50.0,-100.00,ESE,111,3.0,6.0,91,0.00,,,0.00,0.000000,,2013-09-25 03:45:00,
2013-09-24 22:55:00,53.0,50.0,-100.00,ESE,111,3.0,6.0,91,0.00,,,0.00,0.000000,,2013-09-25 03:55:00,
2013-09-24 23:04:00,53.0,50.0,-100.00,ESE,111,3.0,6.0,91,0.00,,,0.00,0.000000,,2013-09-25 04:04:00,
2013-09-24 23:43:00,50.0,49.0,-100.00,East,83,2.0,4.0,98,0.00,,,0.00,0.000000,,2013-09-25 04:43:00,
2013-09-24 23:54:00,50.0,49.0,-100.00,East,83,2.0,4.0,98,0.00,,,0.00,0.000000,,2013-09-25 04:54:00,